Weather History for Ottumwa, IA

Change the Weather History Date:

Saturday, April 14, 2012

  Actual Average Record
Temperature  
Mean Temperature 60 °F 50 °F  
Max Temperature 69 °F 62 °F 88 °F (2003)
Min Temperature 51 °F 39 °F 22 °F (1950)
Degree Days  
Heating Degree Days 5 15  
Month to date heating degree days 179 242  
Since 1 July heating degree days 4780 5938  
Cooling Degree Days 0 0  
Month to date cooling degree days 10 0  
Year to date cooling degree days 42 1  
Growing Degree Days 10 (Base 50)    
Moisture  
Dew Point 56 °F    
Average Humidity 87    
Maximum Humidity 100    
Minimum Humidity 73    
Precipitation  
Precipitation 1.43 in 0.11 in 1.54 in (1960)
Month to date precipitation 2.27 1.39  
Year to date precipitation 6.55 5.81  
Sea Level Pressure  
Sea Level Pressure 29.78 in    
Wind  
Wind Speed 9 mph (SSE)    
Max Wind Speed 37 mph    
Max Gust Speed 52 mph    
Visibility 8 miles    
Events Rain , Thunderstorm    
T = Trace of Precipitation, MM = Missing Value Source: NWS Daily Summary

Daily Weather History Graph

Daily Weather History Graph

Search for Another Location

Airport:

Trip Planner

Search our weather history database for the weather conditions in past years. The results will help you decide how hot, cold, wet, or windy it might be!

Date:

Astronomy

Apr. 14, 2012 Rise Set
Actual Time 6:31 AM CDT 7:49 PM CDT
Civil Twilight 6:02 AM CDT 8:17 PM CDT
Nautical Twilight 5:28 AM CDT 8:52 PM CDT
Astronomical Twilight 4:52 AM CDT 9:28 PM CDT
Moon 2:58 AM CDT (4/14) 1:39 PM CDT (4/14)
Length of Visible Light 14h 15m
Length of Day
13h 17m
Last Quarter, 37% of the Moon is Illuminated
Apr 14
Last Quarter
Apr 21
New
Apr 29
First Quarter
May 5
Full
May 12
Last Quarter

Hourly Weather History & Observations

Time (CDT) Temp. Dew Point Humidity Pressure Visibility Wind Dir Wind Speed Gust Speed Precip Events Conditions
12:53 AM 51.1 °F 48.0 °F 89% 29.91 in 10.0 mi SSE 8.1 mph - N/A   Partly Cloudy
1:09 AM 51.8 °F 48.2 °F 88% 29.90 in 10.0 mi SSE 6.9 mph - N/A   Mostly Cloudy
1:36 AM 51.8 °F 48.2 °F 88% 29.89 in 10.0 mi SSE 9.2 mph - N/A   Overcast
1:53 AM 52.0 °F 48.9 °F 89% 29.89 in 10.0 mi SSE 10.4 mph - N/A   Overcast
2:11 AM 51.8 °F 48.2 °F 88% 29.88 in 10.0 mi SSE 10.4 mph - N/A   Overcast
2:18 AM 51.8 °F 48.2 °F 88% 29.88 in 10.0 mi SSE 10.4 mph - N/A   Overcast
2:53 AM 52.0 °F 48.9 °F 89% 29.88 in 10.0 mi South 12.7 mph - N/A   Overcast
3:14 AM 51.8 °F 48.2 °F 88% 29.86 in 10.0 mi South 10.4 mph - N/A   Overcast
3:53 AM 52.0 °F 50.0 °F 93% 29.87 in 10.0 mi Calm Calm - N/A   Overcast
4:12 AM 51.8 °F 50.0 °F 94% 29.87 in 10.0 mi South 3.5 mph - N/A   Overcast
4:53 AM 52.0 °F 50.0 °F 93% 29.87 in 9.0 mi SE 3.5 mph - N/A   Overcast
5:24 AM 51.8 °F 50.0 °F 94% 29.87 in 8.0 mi SSE 4.6 mph - N/A   Overcast
5:53 AM 51.1 °F 50.0 °F 96% 29.86 in 5.0 mi SE 4.6 mph - N/A   Overcast
6:53 AM 52.0 °F 51.1 °F 97% 29.88 in 2.0 mi SE 4.6 mph - N/A   Overcast
7:01 AM 51.8 °F 51.8 °F 100% 29.87 in 1.2 mi SE 4.6 mph - N/A   Overcast
7:45 AM 53.6 °F 51.8 °F 94% 29.88 in 2.0 mi SE 3.5 mph - N/A   Overcast
7:53 AM 53.1 °F 52.0 °F 96% 29.89 in 2.5 mi SE 4.6 mph - N/A   Overcast
8:03 AM 53.6 °F 51.8 °F 94% 29.89 in 3.0 mi SE 4.6 mph - N/A   Overcast
8:53 AM 54.0 °F 53.1 °F 97% 29.88 in 4.0 mi East 5.8 mph - N/A   Overcast
9:53 AM 57.9 °F 55.0 °F 90% 29.87 in 7.0 mi SE 5.8 mph - 0.00 in   Overcast
10:21 AM 59.0 °F 55.4 °F 88% 29.87 in 8.0 mi ESE 4.6 mph - N/A   Overcast
10:53 AM 61.0 °F 57.0 °F 87% 29.87 in 9.0 mi East 5.8 mph - N/A   Mostly Cloudy
11:04 AM 62.6 °F 57.2 °F 82% 29.87 in 10.0 mi ESE 5.8 mph - N/A   Overcast
11:25 AM 62.6 °F 57.2 °F 82% 29.87 in 10.0 mi SE 6.9 mph - N/A   Overcast
11:53 AM 64.9 °F 60.1 °F 84% 29.86 in 10.0 mi SE 5.8 mph - N/A   Mostly Cloudy
12:37 PM 62.6 °F 59.0 °F 88% 29.85 in 10.0 mi SSE 11.5 mph - N/A   Overcast
12:53 PM 63.0 °F 59.0 °F 87% 29.83 in 10.0 mi SSE 12.7 mph - N/A   Overcast
1:02 PM 64.4 °F 59.0 °F 83% 29.83 in 10.0 mi SSE 11.5 mph - N/A   Overcast
1:53 PM 64.9 °F 60.1 °F 84% 29.81 in 10.0 mi SE 10.4 mph - N/A   Overcast
2:14 PM 66.2 °F 60.8 °F 83% 29.80 in 10.0 mi SSE 15.0 mph 23.0 mph N/A   Overcast
2:41 PM 66.2 °F 60.8 °F 83% 29.79 in 10.0 mi SSE 17.3 mph - N/A   Overcast
2:53 PM 66.9 °F 61.0 °F 81% 29.77 in 10.0 mi SSE 17.3 mph - N/A   Mostly Cloudy
3:20 PM 68.0 °F 60.8 °F 78% 29.76 in 10.0 mi SSE 15.0 mph - N/A   Mostly Cloudy
3:53 PM 69.1 °F 61.0 °F 75% 29.74 in 10.0 mi SSE 12.7 mph - N/A   Scattered Clouds
4:03 PM 69.8 °F 60.8 °F 73% 29.74 in 10.0 mi South 17.3 mph - N/A   Mostly Cloudy
4:18 PM 68.0 °F 60.8 °F 78% 29.73 in 10.0 mi SSE 16.1 mph - N/A   Mostly Cloudy
4:53 PM 68.0 °F 60.1 °F 76% 29.71 in 10.0 mi SSE 12.7 mph 21.9 mph N/A   Partly Cloudy
5:53 PM 66.9 °F 60.1 °F 79% 29.70 in 10.0 mi SSE 10.4 mph - N/A   Mostly Cloudy
6:53 PM 64.9 °F 60.1 °F 84% 29.69 in 10.0 mi SE 10.4 mph - 0.00 in Thunderstorm Mostly Cloudy
7:18 PM 62.6 °F 60.8 °F 94% 29.65 in 10.0 mi SE 13.8 mph 23.0 mph 0.01 in Rain Light Rain
7:50 PM 62.6 °F 60.8 °F 94% 29.66 in 10.0 mi SE 15.0 mph 21.9 mph 0.01 in Rain , Thunderstorm Light Rain
7:53 PM 63.0 °F 60.1 °F 90% 29.64 in 8.0 mi SE 18.4 mph 23.0 mph 0.03 in Rain , Thunderstorm Light Rain
8:36 PM 62.6 °F 60.8 °F 94% 29.58 in 10.0 mi SE 23.0 mph 28.8 mph 0.12 in   Overcast
8:53 PM 64.0 °F 62.1 °F 93% 29.59 in 10.0 mi SE 19.6 mph 31.1 mph 0.12 in   Overcast
9:03 PM 64.4 °F 62.6 °F 94% 29.59 in 10.0 mi SE 19.6 mph 28.8 mph N/A Thunderstorm Overcast
9:30 PM 62.6 °F 60.8 °F 94% 29.65 in 1.8 mi WNW 32.2 mph 51.8 mph 0.14 in Rain , Thunderstorm Light Thunderstorms and Rain
9:36 PM 60.8 °F 57.2 °F 88% 29.67 in 0.8 mi West 23.0 mph 51.8 mph 0.29 in Rain , Thunderstorm Heavy Thunderstorms and Rain
9:43 PM 57.2 °F 55.4 °F 94% 29.67 in 0.8 mi WSW 17.3 mph 34.5 mph 0.63 in Rain , Thunderstorm Heavy Thunderstorms and Rain
9:50 PM 57.2 °F 55.4 °F 94% 29.67 in 1.0 mi West 13.8 mph - 0.77 in Rain , Thunderstorm Heavy Thunderstorms and Rain
9:53 PM 57.0 °F 55.9 °F 96% 29.65 in 1.2 mi WSW 10.4 mph - 0.85 in Rain , Thunderstorm Heavy Thunderstorms and Rain
10:19 PM 59.0 °F 57.2 °F 94% 29.65 in 3.0 mi WSW 4.6 mph - 0.38 in Rain Rain
10:44 PM 59.0 °F 57.2 °F 94% 29.61 in 10.0 mi ESE 8.1 mph - 0.43 in   Overcast
10:53 PM 59.0 °F 57.9 °F 96% 29.62 in 10.0 mi NW 12.7 mph 16.1 mph 0.43 in   Overcast
11:27 PM 60.8 °F 59.0 °F 94% 29.63 in - North 3.5 mph - 0.00 in   Unknown
11:53 PM 60.1 °F 59.0 °F 96% 29.61 in 10.0 mi NE 4.6 mph - 0.00 in Rain Light Rain